Weather History for Lovelock, NV

Change the Weather History Date:

Tuesday, December 18, 2012

  Actual Average Record
Temperature  
Mean Temperature 28 °F -  
Max Temperature 37 °F 42 °F 60 °F (1960)
Min Temperature 18 °F 17 °F 0 °F (2008)
Degree Days  
Heating Degree Days 37    
Moisture  
Dew Point 15 °F    
Average Humidity 56    
Maximum Humidity 78    
Minimum Humidity 31    
Precipitation  
Precipitation 0.00 in - - ()
Sea Level Pressure  
Sea Level Pressure 29.95 in    
Wind  
Wind Speed 7 mph (NNE)    
Max Wind Speed 15 mph    
Max Gust Speed 24 mph    
Visibility 10 miles    
Events      
Averages and records for this station are not official NWS values.
T = Trace of Precipitation, MM = Missing Value Source: NWS Daily Summary

Daily Weather History Graph

Daily Weather History Graph

Search for Another Location

Airport:

Trip Planner

Search our weather history database for the weather conditions in past years. The results will help you decide how hot, cold, wet, or windy it might be!

Date:

Astronomy

Dec. 18, 2012 Rise Set
Actual Time 7:11 AM PST 4:30 PM PST
Civil Twilight 6:40 AM PST 5:01 PM PST
Nautical Twilight 6:06 AM PST 5:35 PM PST
Astronomical Twilight 5:33 AM PST 6:08 PM PST
Moon 10:53 AM PST 11:02 PM PST
Length of Visible Light 10h 20m
Length of Day
9h 19m
Waxing Crescent, 36% of the Moon is Illuminated
Dec 18
Waxing Crescent
Dec 19
First Quarter
Dec 28
Full
Jan 4
Last Quarter
Jan 11
New

Hourly Weather History & Observations

Time (PST) Temp. Windchill Dew Point Humidity Pressure Visibility Wind Dir Wind Speed Gust Speed Precip Events Conditions
12:53 AM 28.0 °F 21.7 °F 18.0 °F 66% 29.89 in 10.0 mi NNE 5.8 mph - N/A   Clear
1:53 AM 30.0 °F 26.5 °F 21.9 °F 72% 29.88 in 10.0 mi NNW 3.5 mph - N/A   Clear
2:53 AM 28.0 °F 22.8 °F 21.9 °F 78% 29.89 in 10.0 mi ENE 4.6 mph - N/A   Overcast
3:53 AM 30.0 °F 23.2 °F 21.9 °F 72% 29.86 in 10.0 mi NNE 6.9 mph - N/A   Mostly Cloudy
4:53 AM 28.0 °F 18.6 °F 19.0 °F 69% 29.89 in 10.0 mi NNE 10.4 mph - N/A   Clear
5:53 AM 27.0 °F 20.5 °F 18.0 °F 69% 29.92 in 10.0 mi NE 5.8 mph - N/A   Partly Cloudy
6:53 AM 28.0 °F 19.3 °F 17.1 °F 63% 29.92 in 10.0 mi North 9.2 mph - N/A   Partly Cloudy
7:53 AM 27.0 °F 23.0 °F 17.1 °F 66% 29.93 in 10.0 mi East 3.5 mph - N/A   Scattered Clouds
8:53 AM 30.0 °F 23.2 °F 19.0 °F 64% 29.92 in 10.0 mi ENE 6.9 mph - N/A   Scattered Clouds
9:53 AM 34.0 °F 28.8 °F 19.9 °F 56% 29.93 in 10.0 mi North 5.8 mph - N/A   Mostly Cloudy
10:53 AM 36.0 °F 29.0 °F 12.9 °F 39% 29.91 in 10.0 mi North 9.2 mph - N/A   Clear
11:53 AM 37.0 °F 30.4 °F 12.0 °F 36% 29.89 in 10.0 mi North 9.2 mph - N/A   Clear
12:53 PM 36.0 °F 30.3 °F 8.1 °F 31% 29.88 in 10.0 mi NNW 6.9 mph - N/A   Mostly Cloudy
1:53 PM 35.1 °F 25.9 °F 12.0 °F 39% 29.88 in 10.0 mi NW 13.8 mph 24.2 mph N/A   Overcast
2:53 PM 36.0 °F 26.7 °F 10.9 °F 36% 29.89 in 10.0 mi NNW 15.0 mph - N/A   Mostly Cloudy
3:53 PM 34.0 °F 25.0 °F 12.0 °F 40% 29.91 in 10.0 mi North 12.7 mph - N/A   Scattered Clouds
4:53 PM 30.9 °F 22.2 °F 14.0 °F 50% 29.95 in 10.0 mi North 10.4 mph - N/A   Mostly Cloudy
5:53 PM 28.0 °F 19.3 °F 10.9 °F 49% 29.98 in 10.0 mi North 9.2 mph - N/A   Clear
6:53 PM 25.0 °F 19.3 °F 12.0 °F 58% 30.02 in 10.0 mi North 4.6 mph - N/A   Clear
7:53 PM 25.0 °F 18.1 °F 10.9 °F 55% 30.05 in 10.0 mi East 5.8 mph - N/A   Clear
8:53 PM 26.1 °F - 10.0 °F 51% 30.06 in 10.0 mi Calm Calm - N/A   Clear
9:53 PM 21.9 °F 15.7 °F 12.0 °F 66% 30.09 in 10.0 mi ENE 4.6 mph - N/A   Clear
10:53 PM 19.9 °F - 10.0 °F 65% 30.11 in 10.0 mi Calm Calm - N/A   Clear
11:53 PM 18.0 °F 9.8 °F 8.1 °F 65% 30.13 in 10.0 mi SSE 5.8 mph - N/A   Clear